This demonstration page uses our WeatherBlox Daily Observations layout. Learn more.

Left ArrowRight Arrow

Hourly Observations for February 15, 2022

Temp ( °F °C ) Dew Point ( °F °C ) Humidity (%) Winds ( mph kmh ) Pressure ( in mb ) Visibility ( mi km ) Precip ( " mm )
12:56 am 00:56 Mostly Cloudy 25 -3.7 16 -8.8 68 68 E 8 13 30.27 1025 10 16 0.00 0.00
1:56 am 01:56 Mostly Cloudy 26 -3.4 17 -8.3 69 69 ESE 6 9 30.26 1025 10 16 0.00 0.00
2:56 am 02:56 Partly Cloudy 26 -3.3 17 -8.2 69 69 ESE 10 17 30.22 1023 10 16 0.00 0.00
3:56 am 03:56 Clear 25 -3.7 17 -8.2 71 71 SE 10 17 30.20 1023 10 16 0.00 0.00
4:56 am 04:56 Partly Cloudy 25 -3.8 17 -8.1 72 72 SE 10 17 30.16 1021 10 16 0.00 0.00
5:56 am 05:56 Mostly Cloudy 26 -3.2 17 -8.1 69 69 ESE 7 11 30.13 1020 10 16 0.00 0.00
6:56 am 06:56 Partly Cloudy 26 -3.4 17 -8.1 70 70 ESE 7 11 30.09 1019 10 16 0.00 0.00
7:56 am 07:56 Mostly Cloudy 28 -2.2 19 -7.5 67 67 SE 10 17 30.07 1018 10 16 0.00 0.00
8:56 am 08:56 Sunny 32 0.1 19 -7 59 59 SE 14 22 30.05 1018 10 16 0.00 0.00
9:56 am 09:56 Sunny 37 2.8 22 -5.8 54 54 SE 15 24 30.01 1016 10 16 0.00 0.00
10:56 am 10:56 Sunny 43 5.9 23 -5.1 45 45 SSE 18 30 29.97 1015 10 16 0.00 0.00
11:56 am 11:56 Sunny 47 8.3 24 -4.2 41 41 S 15 24 29.92 1013 10 16 0.00 0.00
12:56 pm 12:56 Sunny 51 10.4 25 -3.7 37 37 SSE 16 26 29.85 1011 10 16 0.00 0.00
1:56 pm 13:56 Sunny 56 13.5 27 -2.9 32 32 SSE 21 33 29.79 1009 10 16 0.00 0.00
2:56 pm 14:56 Sunny 60 15.5 26 -3.4 27 27 S 16 26 29.75 1007 10 16 0.00 0.00
3:56 pm 15:56 Mostly Sunny 63 17.1 26 -3.6 24 24 S 16 26 29.70 1006 10 16 0.00 0.00
4:56 pm 16:56 Mostly Sunny 60 15.8 26 -3.2 27 27 S 12 19 29.69 1005 10 16 0.00 0.00
5:56 pm 17:56 Mostly Cloudy 58 14.6 27 -2.8 30 30 S 9 15 29.69 1005 10 16 0.00 0.00
6:56 pm 18:56 Mostly Cloudy 56 13.3 27 -2.6 33 33 S 9 15 29.70 1006 10 16 0.00 0.00
7:56 pm 19:56 Mostly Cloudy 53 11.9 30 -1.3 40 40 S 8 13 29.71 1006 10 16 0.00 0.00
8:56 pm 20:56 Mostly Cloudy 54 12.4 31 -0.8 40 40 S 10 17 29.71 1006 10 16 0.00 0.00
9:56 pm 21:56 Mostly Cloudy 48 8.9 31 -0.4 52 52 SSE 8 13 29.71 1006 10 16 0.00 0.00
10:56 pm 22:56 Mostly Cloudy 46 7.7 31 -0.3 57 57 SE 9 15 29.70 1006 10 16 0.00 0.00
11:56 pm 23:56 Partly Cloudy 45 7.2 31 -0.3 59 59 SSE 7 11 29.68 1005 10 16 0.00 0.00

Powered by AerisWeather